DateTimeUTC,F1_A11,F1_S11,BsB_S11,BsG_S11,BsR_S11,BbsB_S11,BbsG_S11,BbsR_S11,BaB_A11,BaG_A11,BaR_A11,Tu_S11,T_S11,Uu_S11,U_S11,P_S11,T1_A11
2021-05-29T11:00:00Z,00000200,20000000,,,,,,,0000.05,-000.26,0000.07,17.8,24.4,03.3,02.2,0670.6,30.8
2021-05-29T11:01:00Z,00000200,20000000,,,,,,,-000.04,0000.14,0000.11,17.8,24.4,03.3,02.2,0670.6,30.8
2021-05-29T11:02:00Z,00000200,20000000,,,,,,,0000.04,0000.10,-000.07,17.8,24.4,03.3,02.2,0670.6,30.8
2021-05-29T11:03:00Z,00000200,60000000,,,,,,,0000.53,0000.58,0000.41,17.8,24.4,03.3,02.2,0670.6,30.8
2021-05-29T11:04:00Z,00000200,40000000,0002.00,0001.14,0000.63,-000.02,0000.32,0000.34,0000.68,0000.61,0000.56,17.9,24.3,03.6,02.4,0671.5,30.8
2021-05-29T11:05:00Z,00000200,00000000,0002.06,0001.15,0000.74,0000.03,0000.20,0000.09,0000.68,0000.66,0000.52,18.0,24.2,03.6,02.5,0671.6,30.8
2021-05-29T11:06:00Z,00000200,00000000,0001.50,0001.35,0000.65,0000.54,0000.39,0000.10,0000.71,0000.46,0000.27,18.0,24.2,03.7,02.5,0671.6,30.8
2021-05-29T11:07:00Z,00000200,00000000,0001.85,0001.56,0000.41,-000.03,0000.38,-000.11,0000.64,0000.46,0000.23,18.0,24.2,03.6,02.5,0671.6,30.8
2021-05-29T11:08:00Z,00000200,00000000,0002.06,0001.49,0000.71,0000.51,0000.44,-000.11,0000.65,0000.52,0000.55,18.0,24.2,03.6,02.5,0671.5,30.9
2021-05-29T11:09:00Z,00000200,00000000,0002.24,0001.33,0000.81,0000.03,0000.28,-000.13,0000.83,0001.06,0000.76,18.0,24.2,03.6,02.5,0671.5,30.8
2021-05-29T11:10:00Z,00000200,00000000,0002.62,0001.15,0000.85,0000.04,0000.28,-000.01,0000.89,0000.89,0000.43,18.0,24.2,03.7,02.5,0671.5,30.8
2021-05-29T11:11:00Z,00000200,00000000,0002.08,0001.02,0000.80,0000.56,0000.30,0000.00,0000.65,0000.30,0000.58,18.0,24.2,03.8,02.6,0671.6,30.9
2021-05-29T11:12:00Z,00000200,00000000,0001.53,0001.06,0000.79,0000.02,0000.30,-000.01,0000.44,0000.65,0000.60,18.0,24.2,03.9,02.6,0671.5,30.8
2021-05-29T11:13:00Z,00000200,00000000,0001.38,0001.34,0000.63,0000.21,0000.01,-000.28,0000.71,0000.56,0000.16,18.0,24.2,03.8,02.6,0671.5,30.8
2021-05-29T11:14:00Z,00000200,00000000,0001.91,0001.05,0000.48,0000.06,0000.46,0000.08,0001.02,0000.86,0000.93,18.0,24.2,03.9,02.7,0671.5,30.8
2021-05-29T11:15:00Z,00000200,00000000,0001.78,0001.09,0000.61,0000.10,0000.34,-000.15,0000.13,0000.52,-000.10,18.0,24.2,04.0,02.7,0671.5,30.8
2021-05-29T11:16:00Z,00000200,00000000,0002.04,0000.98,0000.55,0000.53,0000.14,0000.21,0001.08,0000.94,0000.59,18.0,24.2,04.0,02.8,0671.5,30.8
2021-05-29T11:17:00Z,00000200,00000000,0001.25,0001.05,0000.82,0000.33,-000.00,0000.33,0000.76,0000.28,0000.42,18.0,24.2,04.1,02.8,0671.5,30.8
2021-05-29T11:18:00Z,00000200,00000000,0001.67,0001.02,0000.55,0000.21,0000.37,0000.30,0000.55,0000.43,0000.45,18.0,24.2,04.1,02.8,0671.5,30.8
2021-05-29T11:19:00Z,00000200,00000000,0002.27,0000.81,0000.68,0000.10,0000.23,0000.03,0000.52,0000.59,0000.48,18.0,24.2,04.1,02.8,0671.5,30.9
2021-05-29T11:20:00Z,00000200,00000000,0001.61,0001.10,0000.55,-000.04,0000.14,-000.01,0000.95,0000.59,0000.79,18.0,24.2,04.1,02.8,0671.5,30.8
2021-05-29T11:21:00Z,00000200,00000000,0002.03,0000.93,0000.46,0000.05,0000.11,-000.03,0000.69,0000.64,0000.46,18.0,24.2,04.1,02.8,0671.5,30.8
2021-05-29T11:22:00Z,00000200,00000000,0001.96,0001.10,0000.54,0000.65,0000.37,-000.10,0000.24,0000.47,0000.11,18.0,24.2,04.3,02.9,0671.5,30.8
2021-05-29T11:23:00Z,00000200,00000000,0002.00,0000.54,0000.30,0000.11,0000.03,0000.04,0000.63,0000.60,0000.55,18.0,24.2,04.1,02.8,0671.5,30.8
2021-05-29T11:24:00Z,00000200,00000000,0001.94,0001.03,0000.75,0000.49,0000.09,0000.11,0000.86,0000.65,0000.22,18.0,24.2,04.1,02.8,0671.5,30.8
2021-05-29T11:25:00Z,00000200,00000000,0001.65,0000.85,0000.71,0000.54,0000.44,0000.06,0000.40,0000.48,0000.51,18.0,24.2,04.2,02.9,0671.5,30.8
2021-05-29T11:26:00Z,00000200,00000000,0001.29,0001.13,0000.61,-000.28,0000.10,0000.39,0000.84,0000.74,0000.84,18.0,24.2,04.3,02.9,0671.5,30.8
2021-05-29T11:27:00Z,00000200,00000000,0001.66,0000.99,0000.68,0000.16,0000.07,0000.10,0000.77,0000.15,0000.14,18.0,24.2,04.3,02.9,0671.5,30.8
2021-05-29T11:28:00Z,00000200,00000000,0001.27,0001.33,0000.66,-000.03,0000.20,-000.01,0000.25,0000.86,0000.55,18.0,24.2,04.1,02.8,0671.5,30.8
2021-05-29T11:29:00Z,00000200,00000000,0002.02,0001.18,0000.74,0000.39,0000.23,-000.26,0000.50,0000.68,0000.46,18.0,24.2,04.2,02.9,0671.6,30.9
2021-05-29T11:30:00Z,00000200,00000000,0001.64,0001.18,0000.88,0000.76,0000.39,0000.04,0000.74,0000.47,0000.17,18.0,24.2,04.2,02.9,0671.6,30.8
2021-05-29T11:31:00Z,00000200,00000000,0001.92,0001.22,0000.49,0000.17,0000.22,0000.02,0000.22,0000.12,0000.17,18.1,24.2,04.2,02.8,0671.5,30.8
2021-05-29T11:32:00Z,00000200,00000000,0001.97,0001.14,0000.47,-000.05,0000.18,0000.03,0000.91,0001.03,0000.82,18.0,24.2,04.2,02.9,0671.5,30.8
2021-05-29T11:33:00Z,00000200,00000000,0001.72,0001.15,0000.85,-000.18,-000.02,0000.38,0000.57,0000.35,0000.41,18.1,24.2,04.2,02.9,0671.5,30.8
2021-05-29T11:34:00Z,00000200,00000000,0001.49,0000.81,0000.51,0000.25,0000.20,-000.03,0000.81,0000.75,0000.55,18.1,24.2,04.2,02.9,0671.5,30.8
2021-05-29T11:35:00Z,00000200,00000000,0002.06,0001.13,0000.68,0000.23,0000.00,0000.10,0000.39,0000.04,0000.13,18.0,24.2,04.2,02.9,0671.5,30.8
2021-05-29T11:36:00Z,00000200,00000000,0000.96,0001.25,0000.78,0000.52,0000.40,0000.53,0000.36,0000.61,0000.06,18.1,24.2,04.0,02.7,0671.4,30.8
2021-05-29T11:37:00Z,00000200,00000000,0001.16,0001.16,0000.74,-000.01,0000.26,0000.27,0000.46,0000.65,0000.39,18.1,24.2,03.9,02.7,0671.4,30.8
2021-05-29T11:38:00Z,00000200,00000000,0001.83,0000.61,0000.47,0000.20,0000.03,-000.12,0000.47,0000.07,0000.23,18.1,24.2,03.9,02.7,0671.4,30.8
2021-05-29T11:39:00Z,00000200,00000000,0001.45,0000.91,0000.68,0000.34,0000.20,0000.21,0000.77,0000.91,0000.52,18.1,24.2,03.8,02.6,0671.4,30.8
2021-05-29T11:40:00Z,00000200,00000000,0001.95,0000.74,0000.58,0000.14,0000.25,0000.07,0000.53,0000.40,0000.40,18.1,24.2,03.8,02.6,0671.4,30.9
2021-05-29T11:41:00Z,00000200,00000000,0001.45,0001.17,0000.77,-000.11,0000.28,0000.22,0000.64,0000.40,0000.50,18.1,24.2,03.8,02.6,0671.3,30.8
2021-05-29T11:42:00Z,00000200,00000000,0002.14,0000.98,0000.87,0000.33,0000.13,-000.07,0000.43,0000.28,0000.22,18.1,24.2,03.8,02.6,0671.3,30.8
2021-05-29T11:43:00Z,00000200,00000000,0001.60,0001.27,0000.31,-000.20,0000.19,-000.01,0000.53,0000.57,0000.43,18.1,24.2,03.9,02.7,0671.3,30.8
2021-05-29T11:44:00Z,00000200,00000000,0001.65,0000.92,0000.87,0000.35,0000.27,0000.17,0000.71,0000.59,0000.15,18.1,24.2,04.0,02.7,0671.4,30.8
2021-05-29T11:45:00Z,00000200,00000000,0001.90,0000.64,0000.39,0000.40,0000.38,-000.15,0000.43,0000.55,0000.49,18.1,24.2,03.9,02.7,0671.4,30.8
2021-05-29T11:46:00Z,00000200,00000000,0001.45,0000.84,0000.39,0000.52,0000.26,-000.35,0000.43,0000.53,0000.35,18.1,24.2,04.0,02.7,0671.4,30.8
2021-05-29T11:47:00Z,00000200,00000000,0002.03,0000.78,0000.69,0000.33,0000.07,0000.12,0000.39,0000.43,0000.33,18.1,24.2,04.1,02.8,0671.4,30.8
2021-05-29T11:48:00Z,00000200,00000000,0001.90,0000.91,0000.48,0000.14,0000.08,-000.08,0000.91,0000.71,0000.57,18.1,24.2,04.1,02.8,0671.4,30.8
2021-05-29T11:49:00Z,00000200,00000000,0001.32,0001.16,0000.46,-000.16,0000.19,-000.12,0000.60,0000.39,0000.54,18.1,24.2,04.1,02.8,0671.4,30.8
2021-05-29T11:50:00Z,00000200,00000000,0002.36,0001.01,0000.65,0000.32,0000.26,0000.05,0000.50,0000.36,0000.38,18.1,24.2,04.1,02.8,0671.4,30.8
2021-05-29T11:51:00Z,00000200,00000000,0001.39,0001.10,0000.75,-000.11,0000.51,0000.06,0000.59,0000.78,-000.03,18.1,24.2,04.1,02.8,0671.4,30.8
2021-05-29T11:52:00Z,00000200,00000000,0001.26,0000.99,0000.32,-000.38,0000.27,-000.13,0000.70,0000.41,0000.62,18.1,24.2,04.1,02.8,0671.4,30.8
2021-05-29T11:53:00Z,00000200,00000000,0001.31,0000.88,0000.54,-000.11,0000.27,0000.05,0000.22,0000.31,0000.28,18.1,24.2,04.2,02.9,0671.4,30.8
2021-05-29T11:54:00Z,00000200,00000000,0001.44,0001.02,0000.43,0000.12,0000.19,-000.15,0000.67,0000.62,0000.29,18.1,24.2,04.1,02.8,0671.4,30.8
2021-05-29T11:55:00Z,00000200,00000000,0001.73,0001.23,0000.30,0000.31,0000.20,-000.00,0000.70,0000.52,0000.49,18.1,24.2,04.1,02.8,0671.4,30.8
2021-05-29T11:56:00Z,00000200,00000000,0001.82,0000.96,0000.63,-000.09,0000.34,0000.09,0000.41,0000.42,0000.20,18.1,24.2,04.3,02.9,0671.4,30.8
2021-05-29T11:57:00Z,00000200,40000000,,,,,,,-000.13,-000.15,0000.05,18.2,24.3,03.5,02.4,0671.5,30.9
2021-05-29T11:58:00Z,00000200,60000000,,,,,,,0000.09,0000.26,-000.11,18.0,24.4,04.0,02.7,0670.4,30.8
2021-05-29T11:59:00Z,00000200,20000000,,,,,,,0000.13,-000.37,0000.39,18.0,24.5,03.9,02.6,0670.3,30.8
